"Pseudo-MPEC" for P10NAVC

Created 2019 May 21 8:07:13 UT using Find_Orb

Click here for an explanation of pseudo-MPECs

 
 Astrometry: 
     P10NAVC  C2019 05 075mKZ*PtEk'!gvHmmWYUF9gC.YmJy+IKe.!9AstrometrySF@.4pVF51
     P10NAVC  C2019 05 07'dg:sh.:1p@Edja@jFCo1QpJ^km*a#e%kxY49redacted;D*3iHXF51
     P10NAVC  C2019 05 07*hHP2=;=gf]1IhLLSR=3*PGCO,1clickrTiWC7a/.WLOCN2.wZ$.F51
     P10NAVC |C2019 05 09fuAqC:UOK')n8_T5m1B.j/B/PFq=um4!6(0?.8*)b^r/o4,#Y;sU807
     P10NAVC |C2019 05 09$JUvgPi!RY)herebx7Tn9]VwVeGDq$W2x27ggir0DJi'fAsuAg4Y807
     P10NAVC |C2019 05 09Cefor5bf3ZkexplanationkFC#7EEXh=hfA1m-R@(N-pa*\vmHc'807

Station data:
(807) Cerro Tololo Observatory, La Serena  (S30.169136 W70.805900)  Chile.
(F51) Pan-STARRS 1, Haleakala  (N20.707235 W156.255910)  US/Hawaii.
   Observers N. Primak, A. Schultz, S. Watters, J. Thiel, T. Goggia. Measurer
   PS1 Science Consortium. 1.8-m Ritchey-Chrétien + CCD.

Orbital elements:  P10NAVC
   Perihelion 2019 Jan 31.561179 +/- 42.2 TT = 13:28:05 (JD 2458515.061179)
Epoch 2019 May  9.0 TT = JDT 2458612.5   Earth MOID: 0.0014   Ve: 0.0172
M 101.71664120 +/- 20               (J2000 ecliptic)          AutoNEOCP
n   1.04390262 +/- 0.199            Peri.  242.24884 +/- 43
a   0.96241575 +/- 0.122            Node   210.09734 +/- 28
e   0.3145718 +/- 0.349             Incl.    2.23306 +/- 2.0
P   0.94/344.85d           H 25.3   G  0.15   U 11.7  
q 0.65966681 +/- 0.454    Q 1.26516468 +/- 0.19
From 6 observations 2019 May 7-9 (42.1 hr); mean residual 0".28
Residuals in arcseconds: 
190507 F51  .01+  .33+    190507 F51  .03-  .33-    190509 807  .16+  .12-    
190507 F51  .02+  .01-    190509 807  .37-  .54+    190509 807  .21+  .42-    

Ephemerides (geocentric):
Date (UTC) HH   RA              Dec         delta   r     elong  mag " sig PA
---- -- -- --  -------------   -----------  ------ ------ -----  --- ---- ---
2019 05 21 08  13 20 06.715   -02 04 25.68  .17671 1.1516 139.2 23.3  216 126
2019 05 21 09  13 20 07.882   -02 04 35.84  .17696 1.1517 139.1 23.3  219 126
2019 05 21 10  13 20 09.052   -02 04 46.02  .17720 1.1519 139.1 23.3  222 126
2019 05 21 11  13 20 10.226   -02 04 56.23  .17745 1.1520 139.1 23.3  225 126
2019 05 21 12  13 20 11.404   -02 05 06.48  .17770 1.1522 139.0 23.3  229 126
2019 05 21 13  13 20 12.586   -02 05 16.75  .17794 1.1523 139.0 23.3  232 126
2019 05 21 14  13 20 13.771   -02 05 27.05  .17819 1.1525 139.0 23.3  235 126
2019 05 21 15  13 20 14.961   -02 05 37.39  .17844 1.1526 138.9 23.3  238 126
2019 05 21 16  13 20 16.153   -02 05 47.75  .17868 1.1528 138.9 23.3  241 126
2019 05 21 17  13 20 17.350   -02 05 58.14  .17893 1.1529 138.9 23.3  244 126
2019 05 21 18  13 20 18.550   -02 06 08.56  .17918 1.1531 138.8 23.3  247 126
2019 05 21 19  13 20 19.754   -02 06 19.01  .17943 1.1532 138.8 23.4  251 126
2019 05 21 20  13 20 20.961   -02 06 29.49  .17967 1.1533 138.8 23.4  254 126
2019 05 21 21  13 20 22.173   -02 06 39.99  .17992 1.1535 138.7 23.4  257 126
2019 05 21 22  13 20 23.387   -02 06 50.53  .18017 1.1536 138.7 23.4  260 126
2019 05 21 23  13 20 24.606   -02 07 01.10  .18042 1.1538 138.7 23.4  263 125
2019 05 22 00  13 20 25.828   -02 07 11.69  .18066 1.1539 138.6 23.4  267 125
2019 05 22 01  13 20 27.054   -02 07 22.32  .18091 1.1541 138.6 23.4  270 125
2019 05 22 02  13 20 28.283   -02 07 32.97  .18116 1.1542 138.6 23.4  273 125
2019 05 22 03  13 20 29.517   -02 07 43.65  .18141 1.1544 138.5 23.4  277 125
2019 05 22 04  13 20 30.753   -02 07 54.36  .18165 1.1545 138.5 23.4  280 125
2019 05 22 05  13 20 31.994   -02 08 05.10  .18190 1.1547 138.5 23.4  283 125
2019 05 22 06  13 20 33.238   -02 08 15.87  .18215 1.1548 138.4 23.4  287 125
2019 05 22 07  13 20 34.485   -02 08 26.67  .18240 1.1550 138.4 23.4  290 125
2019 05 22 08  13 20 35.737   -02 08 37.49  .18265 1.1551 138.4 23.4  293 125
2019 05 22 09  13 20 36.992   -02 08 48.35  .18289 1.1553 138.3 23.4  297 125
2019 05 22 10  13 20 38.250   -02 08 59.23  .18314 1.1554 138.3 23.4  300 125
2019 05 22 11  13 20 39.512   -02 09 10.14  .18339 1.1556 138.3 23.4  304 125
2019 05 22 12  13 20 40.778   -02 09 21.08  .18364 1.1557 138.2 23.4  307 125
2019 05 22 13  13 20 42.047   -02 09 32.04  .18389 1.1559 138.2 23.4  310 125
2019 05 22 14  13 20 43.320   -02 09 43.04  .18414 1.1560 138.2 23.4  314 125
2019 05 22 15  13 20 44.596   -02 09 54.06  .18438 1.1562 138.1 23.4  317 125
2019 05 22 16  13 20 45.876   -02 10 05.11  .18463 1.1563 138.1 23.4  321 125
2019 05 22 17  13 20 47.160   -02 10 16.19  .18488 1.1565 138.1 23.4  324 125
2019 05 22 18  13 20 48.447   -02 10 27.30  .18513 1.1566 138.0 23.4  328 125
2019 05 22 19  13 20 49.738   -02 10 38.43  .18538 1.1567 138.0 23.4  332 124
2019 05 22 20  13 20 51.032   -02 10 49.59  .18563 1.1569 138.0 23.4  335 124
2019 05 22 21  13 20 52.330   -02 11 00.78  .18588 1.1570 137.9 23.5  339 124
2019 05 22 22  13 20 53.631   -02 11 12.00  .18613 1.1572 137.9 23.5  342 124
2019 05 22 23  13 20 54.936   -02 11 23.25  .18637 1.1573 137.9 23.5  346 124
2019 05 23 00  13 20 56.245   -02 11 34.52  .18662 1.1575 137.8 23.5  349 124
2019 05 23 01  13 20 57.557   -02 11 45.82  .18687 1.1576 137.8 23.5  353 124
2019 05 23 02  13 20 58.872   -02 11 57.15  .18712 1.1578 137.8 23.5  357 124
2019 05 23 03  13 21 00.191   -02 12 08.51  .18737 1.1579 137.7 23.5  360 124
2019 05 23 04  13 21 01.514   -02 12 19.89  .18762 1.1581 137.7 23.5  364 124
2019 05 23 05  13 21 02.840   -02 12 31.30  .18787 1.1582 137.7 23.5  368 124
2019 05 23 06  13 21 04.170   -02 12 42.74  .18812 1.1584 137.6 23.5  371 124
2019 05 23 07  13 21 05.503   -02 12 54.20  .18837 1.1585 137.6 23.5  375 124